Location: Paris
(48.6709°N, 2.3750°E)
Time: 12:45:56
(UTC+02:00)

KKS-1 - Pass Details

Date: 30 June 2022
Orbit: 634 x 649 km, 98.2° (Epoch: 18 August)

Event Time Altitude Azimuth Distance (km) Brightness Sun altitude
Rises 23:19:20 0° 21° (NNE) 2,979 ? -10.3°
Reaches altitude 10° 23:21:43 10° 30° (NNE) 2,062 ? -10.5°
Maximum altitude 23:25:51 35° 97° (E) 1,055 ? -10.9°
Enters shadow 23:29:00 15° 157° (SSE) 1,713 ? -11.2°
